Regional Weather Roundup
Issued by NWS Albany, NY

Home | Current Version | Previous Version | Graphics & Text | Print | Product List | Glossary On
Versions: 1 2 3 4 5 6 7 8 9 10 11 12 13 14 15 16 17 18 19 20 21 22 23 24 25 26 27 28 29 30 31 32 33 34 35 36 37 38 39 40 41 42 43 44 45 46 47 48 49 50
000
ASUS41 KALY 241110
RWRALY

NEW YORK STATE HOURLY WEATHER ROUNDUP
NATIONAL WEATHER SERVICE ALBANY NY
700 AM EDT SUN MAY 24 2015

NOTE: "FAIR" INDICATES FEW OR NO CLOUDS BELOW 12,000 FEET WITH NO
SIGNIFICANT WEATHER AND/OR NO OBSTRUCTIONS TO VISIBILITY.

NYZ032-033-038>043-046>054-057>066-NYZ062>081-241200-
EAST


CITY           SKY/WX    TMP DP  RH WIND       PRES   REMARKS
ALBANY         MOSUNNY   50  36  58 S5        30.30S
GLENS FALLS    MOSUNNY   50  37  61 S5        30.27R
POUGHKEEPSIE   SUNNY     49  41  74 CALM      30.32S
NEWBURGH       SUNNY     50  39  66 W7        30.34S
MONTGOMERY     SUNNY     45  40  82 SW5       30.34S
WHITE PLAINS   SUNNY     54  38  54 W5        30.34S
ISLIP          MOSUNNY   53  48  83 SW5       30.34S
NEW YORK CITY  MOSUNNY   58  42  55 SW8       30.35S
CENTRAL PARK   SUNNY     57  40  52 VRB3      30.39R
$$

NYZ005>009-017-018-044>046-055-056-241200-
CENTRAL


CITY           SKY/WX    TMP DP  RH WIND       PRES   REMARKS
FULTON         SUNNY     54  36  50 SW8       30.27R
SYRACUSE       MOSUNNY   54  39  57 SE3       30.28R
ROME           SUNNY     42  38  85 CALM      30.30R
ELMIRA         SUNNY     40  38  93 W3        30.35R
BINGHAMTON     SUNNY     49  33  54 SW8       30.33R
MONTICELLO     SUNNY     43  36  75 W3        30.35S
$$

NYZ026>034-041>043-241200-
NORTH


CITY           SKY/WX    TMP DP  RH WIND       PRES   REMARKS
WATERTOWN      SUNNY     55  31  39 SW8       30.25R
FORT DRUM      NOT AVBL
MASSENA        MOSUNNY   54  33  45 SW14      30.17S
SARANAC LAKE   SUNNY     52  31  44 SW9       30.20R
PLATTSBURGH    MOSUNNY   58  32  37 VRB5      30.16R
$$

NYZ001>004-010>016-019>021-241200-
WEST


CITY           SKY/WX    TMP DP  RH WIND       PRES   REMARKS
NIAGARA FALLS  MOSUNNY   52  39  61 SW8       30.29R
BUFFALO        MOSUNNY   49  35  58 S6        30.30R
DUNKIRK        SUNNY     58  37  45 S10       30.31R
JAMESTOWN      SUNNY     45  34  65 S5        30.35R
WELLSVILLE     SUNNY     50  33  52 CALM      30.36R
ROCHESTER      SUNNY     51  37  58 SW9       30.29R
PENN YAN       SUNNY     53  38  56 SW14      30.31R
$$

             KEY
       WCI = WIND CHILL INDEX
       VSB = VISIBILITY
       HX  = HEAT INDEX
$$


USA.gov is the U.S. government's official web portal to all federal, state and local government web resources and services.